Date String (YYYY-MM-DD hh:mm:ss) UTC,Instrument flags,absolute air pressure of the measurement (hPa),sample flow rate (lpm),inlet stack bypass flow (lpm),air temperature of the measurement (°C),ambient temperature measured by the external sensor (°C),aerosol sample conditioner tube jacket temperature (°C),OPC LED temperature (°C),internal box temperature (°C),relative humidity of the measurement (%),span deviation,mass concentration of particles derived from Lorenz-Mie calculation of OPC scattering (μg/m³),mass concentration of particles derived from Lorenz-Mie calculation of OPC scattering (μg/m³),mass concentration of particles derived from Lorenz-Mie calculation of OPC scattering (μg/m³)
DateTimeUTC,F1_M11,P_M11,Q1_M11,Q2_M11,T1_M11,T2_M11,T3_M11,T4_M11,T5_M11,U1_M11,ZSPAN_M11,X0_M11,X2_M11,X1_M11
2023-10-07 16:00:00,SystemResetWarning,0837.8,5.01,000.00,026.8,025.7,000.0,035.1,028.5,20.2,0000.0,0008.82,0005.05,0004.73
2023-10-07 16:01:00,SystemResetWarning,0837.8,5.00,000.00,026.8,025.7,000.0,035.1,028.5,20.2,0000.0,0008.26,0005.03,0004.72
2023-10-07 16:02:00,SystemResetWarning,0837.8,5.01,000.00,026.8,025.7,000.0,035.1,028.6,20.3,0000.0,0008.22,0005.05,0004.72
2023-10-07 16:03:00,SystemResetWarning,0837.8,5.00,000.00,026.8,025.7,000.0,035.1,028.6,20.1,0000.0,0008.28,0005.10,0004.73
2023-10-07 16:04:00,SystemResetWarning,0837.8,4.99,000.00,026.8,025.7,000.0,035.1,028.6,20.3,0000.0,0008.25,0005.11,0004.73
2023-10-07 16:05:00,SystemResetWarning,0837.8,4.99,000.00,026.9,025.7,000.0,035.2,028.6,20.2,0000.0,0008.22,0005.12,0004.71
2023-10-07 16:06:00,SystemResetWarning,0837.8,5.00,000.00,026.9,025.8,000.0,035.2,028.6,20.3,0000.0,0008.17,0005.09,0004.69
2023-10-07 16:07:00,SystemResetWarning,0837.8,5.01,000.00,026.9,025.8,000.0,035.2,028.6,20.3,0000.0,0008.04,0005.09,0004.68
2023-10-07 16:08:00,SystemResetWarning,0837.8,5.01,000.00,026.9,025.8,000.0,035.2,028.6,20.0,0000.0,0008.05,0005.08,0004.66
2023-10-07 16:09:00,SystemResetWarning,0837.8,5.00,000.00,026.9,025.8,000.0,035.2,028.7,19.8,0000.0,0008.10,0005.09,0004.65
2023-10-07 16:10:00,SystemResetWarning,0837.8,5.00,000.00,027.0,025.8,000.0,035.3,028.7,19.8,0000.0,0008.34,0005.09,0004.63
2023-10-07 16:11:00,SystemResetWarning,0837.8,4.99,000.00,027.0,025.9,000.0,035.3,028.7,19.9,0000.0,0008.48,0005.10,0004.61
2023-10-07 16:12:00,SystemResetWarning,0837.8,5.00,000.00,027.0,025.9,000.0,035.3,028.7,19.8,0000.0,0008.50,0005.09,0004.59
2023-10-07 16:13:00,SystemResetWarning,0837.8,5.00,000.00,027.0,025.9,000.0,035.3,028.7,19.9,0000.0,0008.42,0005.06,0004.57
2023-10-07 16:14:00,SystemResetWarning,0837.8,5.00,000.00,027.0,025.9,000.0,035.3,028.7,19.8,0000.0,0008.31,0005.02,0004.57
2023-10-07 16:15:00,SystemResetWarning,0837.8,5.01,000.00,027.1,025.9,000.0,035.4,028.8,19.8,0000.0,0008.32,0004.99,0004.57
2023-10-07 16:16:00,SystemResetWarning,0837.8,5.00,000.00,027.1,025.9,000.0,035.4,028.8,19.7,0000.0,0008.31,0004.98,0004.56
2023-10-07 16:17:00,SystemResetWarning,0837.8,5.00,000.00,027.1,026.0,000.0,035.4,028.8,19.5,0000.0,0008.30,0004.97,0004.56
2023-10-07 16:18:00,SystemResetWarning,0837.8,5.01,000.00,027.1,026.0,000.0,035.4,028.8,19.7,0000.0,0008.28,0004.92,0004.52
2023-10-07 16:19:00,SystemResetWarning,0837.8,5.01,000.00,027.1,026.0,000.0,035.4,028.8,19.6,0000.0,0008.47,0004.92,0004.50
2023-10-07 16:20:00,SystemResetWarning,0837.8,5.00,000.00,027.1,026.0,000.0,035.4,028.8,19.5,0000.0,0009.24,0004.88,0004.47
2023-10-07 16:21:00,SystemResetWarning,0837.8,5.00,000.00,027.2,026.0,000.0,035.5,028.9,19.5,0000.0,0009.26,0004.85,0004.44
2023-10-07 16:22:00,SystemResetWarning,0837.8,5.00,000.00,027.2,026.1,000.0,035.5,028.9,19.5,0000.0,0009.11,0004.81,0004.40
2023-10-07 16:23:00,SystemResetWarning,0837.8,5.00,000.00,027.2,026.1,000.0,035.5,028.9,19.4,0000.0,0009.28,0004.80,0004.40
2023-10-07 16:24:00,SystemResetWarning,0837.8,5.00,000.00,027.2,026.1,000.0,035.5,028.9,19.7,0000.0,0009.42,0004.81,0004.38
2023-10-07 16:25:00,SystemResetWarning,0837.7,4.99,000.00,027.2,026.1,000.0,035.5,029.0,19.8,0000.0,0009.83,0004.84,0004.35
2023-10-07 16:26:00,SystemResetWarning,0837.8,5.00,000.00,027.3,026.1,000.0,035.5,029.0,19.6,0000.0,0009.87,0004.81,0004.32
2023-10-07 16:27:00,SystemResetWarning,0837.8,4.99,000.00,027.3,026.2,000.0,035.6,029.0,19.6,0000.0,0009.68,0004.72,0004.28
2023-10-07 16:28:00,SystemResetWarning,0837.8,5.00,000.00,027.3,026.2,000.0,035.6,029.0,19.8,0000.0,0009.57,0004.68,0004.25
2023-10-07 16:29:00,SystemResetWarning,0837.8,5.00,000.00,027.3,026.2,000.0,035.6,029.0,19.7,0000.0,0009.47,0004.66,0004.24
2023-10-07 16:30:00,SystemResetWarning,0837.8,5.00,000.00,027.3,026.2,000.0,035.6,029.0,19.6,0000.0,0009.46,0004.65,0004.22
2023-10-07 16:31:00,SystemResetWarning,0837.8,5.00,000.00,027.3,026.2,000.0,035.6,029.1,19.6,0000.0,0009.15,0004.63,0004.20
2023-10-07 16:32:00,SystemResetWarning,0837.8,5.01,000.00,027.4,026.2,000.0,035.7,029.1,19.5,0000.0,0009.18,0004.63,0004.20
2023-10-07 16:33:00,SystemResetWarning,0837.8,5.00,000.00,027.4,026.3,000.0,035.7,029.1,19.5,0000.0,0009.10,0004.62,0004.19
2023-10-07 16:34:00,SystemResetWarning,0837.8,5.00,000.00,027.4,026.3,000.0,035.7,029.1,19.0,0000.0,0008.92,0004.58,0004.17
2023-10-07 16:35:00,SystemResetWarning,0837.8,5.00,000.00,027.4,026.3,000.0,035.7,029.1,19.0,0000.0,0008.70,0004.56,0004.15
2023-10-07 16:36:00,SystemResetWarning,0837.8,5.00,000.00,027.5,026.3,000.0,035.7,029.1,19.2,0000.0,0008.45,0004.51,0004.13
2023-10-07 16:37:00,SystemResetWarning,0837.8,5.00,000.00,027.5,026.3,000.0,035.8,029.2,18.7,0000.0,0008.09,0004.47,0004.12
2023-10-07 16:38:00,SystemResetWarning,0837.8,5.00,000.00,027.5,026.4,000.0,035.8,029.2,18.7,0000.0,0008.10,0004.47,0004.11
2023-10-07 16:39:00,SystemResetWarning,0837.7,5.00,000.00,027.5,026.4,000.0,035.8,029.2,19.0,0000.0,0008.12,0004.46,0004.10
2023-10-07 16:40:00,SystemResetWarning,0837.8,5.00,000.00,027.5,026.4,000.0,035.8,029.2,19.0,0000.0,0008.91,0004.49,0004.10
2023-10-07 16:41:00,SystemResetWarning,0837.8,5.01,000.00,027.5,026.4,000.0,035.8,029.3,18.8,0000.0,0009.34,0004.49,0004.09
2023-10-07 16:42:00,SystemResetWarning,0837.8,5.01,000.00,027.5,026.4,000.0,035.8,029.2,18.6,0000.0,0009.19,0004.47,0004.09
2023-10-07 16:43:00,SystemResetWarning,0837.8,5.00,000.00,027.6,026.4,000.0,035.9,029.3,18.7,0000.0,0008.65,0004.45,0004.09
2023-10-07 16:44:00,SystemResetWarning,0837.8,5.00,000.00,027.6,026.5,000.0,035.9,029.3,18.7,0000.0,0009.37,0004.49,0004.07
2023-10-07 16:45:00,SystemResetWarning,0837.8,5.00,000.00,027.6,026.5,000.0,035.9,029.3,18.9,0000.0,0009.50,0004.51,0004.07
2023-10-07 16:46:00,SystemResetWarning,0837.8,5.00,000.00,027.6,026.5,000.0,035.9,029.3,18.6,0000.0,0009.51,0004.49,0004.05
2023-10-07 16:47:00,SystemResetWarning,0837.8,5.00,000.00,027.6,026.5,000.0,035.9,029.4,18.2,0000.0,0009.45,0004.47,0004.04
2023-10-07 16:48:00,SystemResetWarning,0837.8,5.00,000.00,027.6,026.6,000.0,035.9,029.4,18.4,0000.0,0009.60,0004.48,0004.03
2023-10-07 16:49:00,SystemResetWarning,0837.9,5.00,000.00,027.7,026.6,000.0,035.9,029.4,18.1,0000.0,0009.73,0004.49,0004.03
2023-10-07 16:50:00,SystemResetWarning,0837.8,5.00,000.00,027.7,026.6,000.0,036.0,029.4,18.4,0000.0,0009.82,0004.51,0004.05
2023-10-07 16:51:00,SystemResetWarning,0837.8,5.00,000.00,027.7,026.6,000.0,036.0,029.4,18.7,0000.0,0009.26,0004.50,0004.05
2023-10-07 16:52:00,SystemResetWarning,0837.9,5.00,000.00,027.7,026.6,000.0,036.0,029.4,19.3,0000.0,0008.74,0004.47,0004.04
2023-10-07 16:53:00,SystemResetWarning,0837.9,5.00,000.00,027.8,026.7,000.0,036.0,029.5,19.2,0000.0,0008.44,0004.48,0004.04
2023-10-07 16:54:00,SystemResetWarning,0837.9,5.00,000.00,027.8,026.7,000.0,036.1,029.5,19.1,0000.0,0008.45,0004.49,0004.03
2023-10-07 16:55:00,SystemResetWarning,0837.9,5.00,000.00,027.8,026.7,000.0,036.1,029.5,19.1,0000.0,0009.14,0004.48,0004.03
2023-10-07 16:56:00,SystemResetWarning,0837.9,5.00,000.00,027.8,026.7,000.0,036.1,029.5,18.9,0000.0,0009.20,0004.46,0004.03
2023-10-07 16:57:00,SystemResetWarning,0837.9,5.00,000.00,027.8,026.7,000.0,036.1,029.5,19.0,0000.0,0009.11,0004.44,0004.02
2023-10-07 16:58:00,SystemResetWarning,0837.9,5.00,000.00,027.8,026.7,000.0,036.1,029.5,18.9,0000.0,0009.05,0004.43,0004.02
2023-10-07 16:59:00,SystemResetWarning,0837.9,5.00,000.00,027.9,026.8,000.0,036.1,029.5,18.6,0000.0,0009.41,0004.39,0004.02
